owner,sensor,date,latitude,longitude,relative_humidity,qcFlag 
DISL,ioos:station:DISL:PPTA:1,2015-09-01T00:00:00Z,30.2791,-87.5561,63.34,1111122 
DISL,ioos:station:DISL:PPTA:1,2015-09-01T00:30:00Z,30.2791,-87.5561,64.74,1111122 
DISL,ioos:station:DISL:PPTA:1,2015-09-01T01:00:00Z,30.2791,-87.5561,64.3,1111122 
DISL,ioos:station:DISL:PPTA:1,2015-09-01T01:30:00Z,30.2791,-87.5561,63.53,1111122 
DISL,ioos:station:DISL:PPTA:1,2015-09-01T02:00:00Z,30.2791,-87.5561,63.57,1111122 
DISL,ioos:station:DISL:PPTA:1,2015-09-01T02:30:00Z,30.2791,-87.5561,63.8,1111122 
DISL,ioos:station:DISL:PPTA:1,2015-09-01T03:00:00Z,30.2791,-87.5561,69.8,1111122 
DISL,ioos:station:DISL:PPTA:1,2015-09-01T03:30:00Z,30.2791,-87.5561,71.88,1111122 
DISL,ioos:station:DISL:PPTA:1,2015-09-01T04:00:00Z,30.2791,-87.5561,72.27,1111122 
DISL,ioos:station:DISL:PPTA:1,2015-09-01T04:30:00Z,30.2791,-87.5561,72.81,1111122 
DISL,ioos:station:DISL:PPTA:1,2015-09-01T05:00:00Z,30.2791,-87.5561,75.41,1111122 
DISL,ioos:station:DISL:PPTA:1,2015-09-01T05:30:00Z,30.2791,-87.5561,76.41,1111122 
DISL,ioos:station:DISL:PPTA:1,2015-09-01T06:00:00Z,30.2791,-87.5561,77.33,1111122 
DISL,ioos:station:DISL:PPTA:1,2015-09-01T06:30:00Z,30.2791,-87.5561,81.1,1111122 
DISL,ioos:station:DISL:PPTA:1,2015-09-01T07:00:00Z,30.2791,-87.5561,82.0,1111122 
DISL,ioos:station:DISL:PPTA:1,2015-09-01T07:30:00Z,30.2791,-87.5561,84.7,1111122 
DISL,ioos:station:DISL:PPTA:1,2015-09-01T08:00:00Z,30.2791,-87.5561,83.8,1111122 
DISL,ioos:station:DISL:PPTA:1,2015-09-01T08:30:00Z,30.2791,-87.5561,84.2,1111122 
DISL,ioos:station:DISL:PPTA:1,2015-09-01T09:00:00Z,30.2791,-87.5561,85.0,1111122 
DISL,ioos:station:DISL:PPTA:1,2015-09-01T09:30:00Z,30.2791,-87.5561,85.2,1111122 
DISL,ioos:station:DISL:PPTA:1,2015-09-01T10:00:00Z,30.2791,-87.5561,85.1,1111122 
DISL,ioos:station:DISL:PPTA:1,2015-09-01T10:30:00Z,30.2791,-87.5561,85.4,1111122 
DISL,ioos:station:DISL:PPTA:1,2015-09-01T11:00:00Z,30.2791,-87.5561,84.9,1111122 
DISL,ioos:station:DISL:PPTA:1,2015-09-01T11:30:00Z,30.2791,-87.5561,83.5,1111122 
DISL,ioos:station:DISL:PPTA:1,2015-09-01T12:00:00Z,30.2791,-87.5561,83.8,1111122 
DISL,ioos:station:DISL:PPTA:1,2015-09-01T12:30:00Z,30.2791,-87.5561,81.0,1111122 
DISL,ioos:station:DISL:PPTA:1,2015-09-01T13:00:00Z,30.2791,-87.5561,76.48,1111122 
DISL,ioos:station:DISL:PPTA:1,2015-09-01T13:30:00Z,30.2791,-87.5561,74.52,1111122 
DISL,ioos:station:DISL:PPTA:1,2015-09-01T14:00:00Z,30.2791,-87.5561,70.62,1111122 
DISL,ioos:station:DISL:PPTA:1,2015-09-01T14:30:00Z,30.2791,-87.5561,69.08,1111122 
DISL,ioos:station:DISL:PPTA:1,2015-09-01T15:00:00Z,30.2791,-87.5561,63.03,1111122 
DISL,ioos:station:DISL:PPTA:1,2015-09-01T15:30:00Z,30.2791,-87.5561,61.65,1111122 
DISL,ioos:station:DISL:PPTA:1,2015-09-01T16:00:00Z,30.2791,-87.5561,56.16,1111122 
DISL,ioos:station:DISL:PPTA:1,2015-09-01T16:30:00Z,30.2791,-87.5561,50.4,1111122 
DISL,ioos:station:DISL:PPTA:1,2015-09-01T17:00:00Z,30.2791,-87.5561,51.03,1111122 
DISL,ioos:station:DISL:PPTA:1,2015-09-01T17:30:00Z,30.2791,-87.5561,52.59,1111122 
DISL,ioos:station:DISL:PPTA:1,2015-09-01T18:00:00Z,30.2791,-87.5561,53.95,1111122 
DISL,ioos:station:DISL:PPTA:1,2015-09-01T18:30:00Z,30.2791,-87.5561,55.38,1111122 
DISL,ioos:station:DISL:PPTA:1,2015-09-01T19:00:00Z,30.2791,-87.5561,53.17,1111122 
DISL,ioos:station:DISL:PPTA:1,2015-09-01T19:30:00Z,30.2791,-87.5561,54.08,1111122 
DISL,ioos:station:DISL:PPTA:1,2015-09-01T20:00:00Z,30.2791,-87.5561,53.51,1111122 
DISL,ioos:station:DISL:PPTA:1,2015-09-01T20:30:00Z,30.2791,-87.5561,54.41,1111122 
DISL,ioos:station:DISL:PPTA:1,2015-09-01T21:00:00Z,30.2791,-87.5561,52.3,1111122 
DISL,ioos:station:DISL:PPTA:1,2015-09-01T21:30:00Z,30.2791,-87.5561,53.36,1111122 
DISL,ioos:station:DISL:PPTA:1,2015-09-01T22:00:00Z,30.2791,-87.5561,57.12,1111122 
DISL,ioos:station:DISL:PPTA:1,2015-09-01T22:30:00Z,30.2791,-87.5561,57.05,1111122 
DISL,ioos:station:DISL:PPTA:1,2015-09-01T23:00:00Z,30.2791,-87.5561,61.24,1111122 
DISL,ioos:station:DISL:PPTA:1,2015-09-01T23:30:00Z,30.2791,-87.5561,63.01,1111122 
DISL,ioos:station:DISL:PPTA:1,2015-09-02T00:00:00Z,30.2791,-87.5561,63.62,1111122 
DISL,ioos:station:DISL:PPTA:1,2015-09-02T00:30:00Z,30.2791,-87.5561,65.07,1111122 
DISL,ioos:station:DISL:PPTA:1,2015-09-02T01:00:00Z,30.2791,-87.5561,67.73,1111122 
DISL,ioos:station:DISL:PPTA:1,2015-09-02T01:30:00Z,30.2791,-87.5561,71.08,1111122 
DISL,ioos:station:DISL:PPTA:1,2015-09-02T02:00:00Z,30.2791,-87.5561,72.94,1111122 
DISL,ioos:station:DISL:PPTA:1,2015-09-02T02:30:00Z,30.2791,-87.5561,73.89,1111122 
DISL,ioos:station:DISL:PPTA:1,2015-09-02T03:00:00Z,30.2791,-87.5561,75.49,1111122 
DISL,ioos:station:DISL:PPTA:1,2015-09-02T03:30:00Z,30.2791,-87.5561,76.18,1111122 
DISL,ioos:station:DISL:PPTA:1,2015-09-02T04:00:00Z,30.2791,-87.5561,75.66,1111122 
DISL,ioos:station:DISL:PPTA:1,2015-09-02T04:30:00Z,30.2791,-87.5561,77.4,1111122 
DISL,ioos:station:DISL:PPTA:1,2015-09-02T05:00:00Z,30.2791,-87.5561,79.35,1111122 
DISL,ioos:station:DISL:PPTA:1,2015-09-02T05:30:00Z,30.2791,-87.5561,81.0,1111122 
DISL,ioos:station:DISL:PPTA:1,2015-09-02T06:00:00Z,30.2791,-87.5561,81.5,1111122 
DISL,ioos:station:DISL:PPTA:1,2015-09-02T06:30:00Z,30.2791,-87.5561,81.4,1111122 
DISL,ioos:station:DISL:PPTA:1,2015-09-02T07:00:00Z,30.2791,-87.5561,82.1,1111122 
DISL,ioos:station:DISL:PPTA:1,2015-09-02T07:30:00Z,30.2791,-87.5561,82.1,1111122 
DISL,ioos:station:DISL:PPTA:1,2015-09-02T08:00:00Z,30.2791,-87.5561,82.6,1111122 
DISL,ioos:station:DISL:PPTA:1,2015-09-02T08:30:00Z,30.2791,-87.5561,83.2,1111122 
DISL,ioos:station:DISL:PPTA:1,2015-09-02T09:00:00Z,30.2791,-87.5561,85.4,1111122 
DISL,ioos:station:DISL:PPTA:1,2015-09-02T09:30:00Z,30.2791,-87.5561,86.3,1111122 
DISL,ioos:station:DISL:PPTA:1,2015-09-02T10:00:00Z,30.2791,-87.5561,86.3,1111122 
DISL,ioos:station:DISL:PPTA:1,2015-09-02T10:30:00Z,30.2791,-87.5561,87.1,1111122 
DISL,ioos:station:DISL:PPTA:1,2015-09-02T11:00:00Z,30.2791,-87.5561,86.6,1111122 
DISL,ioos:station:DISL:PPTA:1,2015-09-02T11:30:00Z,30.2791,-87.5561,84.4,1111122 
DISL,ioos:station:DISL:PPTA:1,2015-09-02T12:00:00Z,30.2791,-87.5561,84.4,1111122 
DISL,ioos:station:DISL:PPTA:1,2015-09-02T12:30:00Z,30.2791,-87.5561,78.55,1111122 
DISL,ioos:station:DISL:PPTA:1,2015-09-02T13:00:00Z,30.2791,-87.5561,73.28,1111122 
DISL,ioos:station:DISL:PPTA:1,2015-09-02T13:30:00Z,30.2791,-87.5561,66.29,1111122 
DISL,ioos:station:DISL:PPTA:1,2015-09-02T14:00:00Z,30.2791,-87.5561,60.96,1111122 
DISL,ioos:station:DISL:PPTA:1,2015-09-02T14:30:00Z,30.2791,-87.5561,57.58,1111122 
DISL,ioos:station:DISL:PPTA:1,2015-09-02T15:00:00Z,30.2791,-87.5561,55.65,1111122 
DISL,ioos:station:DISL:PPTA:1,2015-09-02T15:30:00Z,30.2791,-87.5561,47.99,1111122 
DISL,ioos:station:DISL:PPTA:1,2015-09-02T16:00:00Z,30.2791,-87.5561,55.47,1111122 
DISL,ioos:station:DISL:PPTA:1,2015-09-02T16:30:00Z,30.2791,-87.5561,53.28,1111122 
DISL,ioos:station:DISL:PPTA:1,2015-09-02T17:00:00Z,30.2791,-87.5561,51.91,1111122 
DISL,ioos:station:DISL:PPTA:1,2015-09-02T17:30:00Z,30.2791,-87.5561,54.66,1111122 
DISL,ioos:station:DISL:PPTA:1,2015-09-02T18:00:00Z,30.2791,-87.5561,51.26,1111122 
DISL,ioos:station:DISL:PPTA:1,2015-09-02T18:30:00Z,30.2791,-87.5561,52.11,1111122 
DISL,ioos:station:DISL:PPTA:1,2015-09-02T19:00:00Z,30.2791,-87.5561,51.36,1111122 
DISL,ioos:station:DISL:PPTA:1,2015-09-02T19:30:00Z,30.2791,-87.5561,52.39,1111122 
DISL,ioos:station:DISL:PPTA:1,2015-09-02T20:00:00Z,30.2791,-87.5561,57.09,1111122 
DISL,ioos:station:DISL:PPTA:1,2015-09-02T20:30:00Z,30.2791,-87.5561,58.45,1111122 
DISL,ioos:station:DISL:PPTA:1,2015-09-02T21:00:00Z,30.2791,-87.5561,56.52,1111122 
DISL,ioos:station:DISL:PPTA:1,2015-09-02T21:30:00Z,30.2791,-87.5561,63.3,1111122 
DISL,ioos:station:DISL:PPTA:1,2015-09-02T22:00:00Z,30.2791,-87.5561,66.51,1111122 
DISL,ioos:station:DISL:PPTA:1,2015-09-02T22:30:00Z,30.2791,-87.5561,71.29,1111122 
DISL,ioos:station:DISL:PPTA:1,2015-09-02T23:00:00Z,30.2791,-87.5561,72.68,1111122 
DISL,ioos:station:DISL:PPTA:1,2015-09-02T23:30:00Z,30.2791,-87.5561,75.83,1111122 
DISL,ioos:station:DISL:PPTA:1,2015-09-03T00:00:00Z,30.2791,-87.5561,75.98,1111122 
DISL,ioos:station:DISL:PPTA:1,2015-09-03T00:30:00Z,30.2791,-87.5561,76.32,1111122 
DISL,ioos:station:DISL:PPTA:1,2015-09-03T01:00:00Z,30.2791,-87.5561,78.4,1111122 
DISL,ioos:station:DISL:PPTA:1,2015-09-03T01:30:00Z,30.2791,-87.5561,78.56,1111122 
DISL,ioos:station:DISL:PPTA:1,2015-09-03T02:00:00Z,30.2791,-87.5561,78.56,1111122 
DISL,ioos:station:DISL:PPTA:1,2015-09-03T02:30:00Z,30.2791,-87.5561,80.7,1111122 
DISL,ioos:station:DISL:PPTA:1,2015-09-03T03:00:00Z,30.2791,-87.5561,79.79,1111122 
DISL,ioos:station:DISL:PPTA:1,2015-09-03T03:30:00Z,30.2791,-87.5561,79.35,1111122 
DISL,ioos:station:DISL:PPTA:1,2015-09-03T04:00:00Z,30.2791,-87.5561,79.0,1111122 
DISL,ioos:station:DISL:PPTA:1,2015-09-03T04:30:00Z,30.2791,-87.5561,79.69,1111122 
DISL,ioos:station:DISL:PPTA:1,2015-09-03T05:00:00Z,30.2791,-87.5561,80.3,1111122 
DISL,ioos:station:DISL:PPTA:1,2015-09-03T05:30:00Z,30.2791,-87.5561,80.7,1111122 
DISL,ioos:station:DISL:PPTA:1,2015-09-03T06:00:00Z,30.2791,-87.5561,82.0,1111122 
DISL,ioos:station:DISL:PPTA:1,2015-09-03T06:30:00Z,30.2791,-87.5561,82.5,1111122 
DISL,ioos:station:DISL:PPTA:1,2015-09-03T07:00:00Z,30.2791,-87.5561,81.7,1111122 
DISL,ioos:station:DISL:PPTA:1,2015-09-03T07:30:00Z,30.2791,-87.5561,84.2,1111122 
DISL,ioos:station:DISL:PPTA:1,2015-09-03T08:00:00Z,30.2791,-87.5561,86.0,1111122 
DISL,ioos:station:DISL:PPTA:1,2015-09-03T08:30:00Z,30.2791,-87.5561,87.0,1111122 
DISL,ioos:station:DISL:PPTA:1,2015-09-03T09:00:00Z,30.2791,-87.5561,86.8,1111122 
DISL,ioos:station:DISL:PPTA:1,2015-09-03T09:30:00Z,30.2791,-87.5561,87.9,1111122 
DISL,ioos:station:DISL:PPTA:1,2015-09-03T10:00:00Z,30.2791,-87.5561,88.4,1111122 
DISL,ioos:station:DISL:PPTA:1,2015-09-03T10:30:00Z,30.2791,-87.5561,88.1,1111122 
DISL,ioos:station:DISL:PPTA:1,2015-09-03T11:00:00Z,30.2791,-87.5561,89.9,1111122 
DISL,ioos:station:DISL:PPTA:1,2015-09-03T11:30:00Z,30.2791,-87.5561,90.7,1111122 
DISL,ioos:station:DISL:PPTA:1,2015-09-03T12:00:00Z,30.2791,-87.5561,90.3,1111122 
DISL,ioos:station:DISL:PPTA:1,2015-09-03T12:30:00Z,30.2791,-87.5561,87.3,1111122 
DISL,ioos:station:DISL:PPTA:1,2015-09-03T13:00:00Z,30.2791,-87.5561,79.3,1111122 
DISL,ioos:station:DISL:PPTA:1,2015-09-03T13:30:00Z,30.2791,-87.5561,77.4,1111122 
DISL,ioos:station:DISL:PPTA:1,2015-09-03T14:00:00Z,30.2791,-87.5561,76.58,1111122 
DISL,ioos:station:DISL:PPTA:1,2015-09-03T14:30:00Z,30.2791,-87.5561,73.59,1111122 
DISL,ioos:station:DISL:PPTA:1,2015-09-03T15:00:00Z,30.2791,-87.5561,72.2,1111122 
DISL,ioos:station:DISL:PPTA:1,2015-09-03T15:30:00Z,30.2791,-87.5561,68.41,1111122 
DISL,ioos:station:DISL:PPTA:1,2015-09-03T16:00:00Z,30.2791,-87.5561,64.37,1111122 
DISL,ioos:station:DISL:PPTA:1,2015-09-03T16:30:00Z,30.2791,-87.5561,67.1,1111122 
DISL,ioos:station:DISL:PPTA:1,2015-09-03T17:00:00Z,30.2791,-87.5561,70.47,1111122 
DISL,ioos:station:DISL:PPTA:1,2015-09-03T17:30:00Z,30.2791,-87.5561,68.91,1111122 
DISL,ioos:station:DISL:PPTA:1,2015-09-03T18:00:00Z,30.2791,-87.5561,69.45,1111122 
DISL,ioos:station:DISL:PPTA:1,2015-09-03T18:30:00Z,30.2791,-87.5561,67.65,1111122 
DISL,ioos:station:DISL:PPTA:1,2015-09-03T19:00:00Z,30.2791,-87.5561,67.37,1111122 
DISL,ioos:station:DISL:PPTA:1,2015-09-03T19:30:00Z,30.2791,-87.5561,66.76,1111122 
DISL,ioos:station:DISL:PPTA:1,2015-09-03T20:00:00Z,30.2791,-87.5561,66.44,1111122 
DISL,ioos:station:DISL:PPTA:1,2015-09-03T20:30:00Z,30.2791,-87.5561,72.53,1111122 
DISL,ioos:station:DISL:PPTA:1,2015-09-03T21:00:00Z,30.2791,-87.5561,69.03,1111122 
DISL,ioos:station:DISL:PPTA:1,2015-09-03T21:30:00Z,30.2791,-87.5561,71.18,1111122 
DISL,ioos:station:DISL:PPTA:1,2015-09-03T22:00:00Z,30.2791,-87.5561,74.22,1111122 
DISL,ioos:station:DISL:PPTA:1,2015-09-03T22:30:00Z,30.2791,-87.5561,73.81,1111122 
DISL,ioos:station:DISL:PPTA:1,2015-09-03T23:00:00Z,30.2791,-87.5561,75.15,1111122 
DISL,ioos:station:DISL:PPTA:1,2015-09-03T23:30:00Z,30.2791,-87.5561,76.52,1111122 
DISL,ioos:station:DISL:PPTA:1,2015-09-04T00:00:00Z,30.2791,-87.5561,77.31,1111122 
DISL,ioos:station:DISL:PPTA:1,2015-09-04T00:30:00Z,30.2791,-87.5561,78.49,1111122 
DISL,ioos:station:DISL:PPTA:1,2015-09-04T01:00:00Z,30.2791,-87.5561,79.11,1111122 
DISL,ioos:station:DISL:PPTA:1,2015-09-04T01:30:00Z,30.2791,-87.5561,74.74,1111122 
DISL,ioos:station:DISL:PPTA:1,2015-09-04T02:00:00Z,30.2791,-87.5561,77.71,1111122 
DISL,ioos:station:DISL:PPTA:1,2015-09-04T02:30:00Z,30.2791,-87.5561,80.7,1111122 
DISL,ioos:station:DISL:PPTA:1,2015-09-04T03:00:00Z,30.2791,-87.5561,80.1,1111122 
DISL,ioos:station:DISL:PPTA:1,2015-09-04T03:30:00Z,30.2791,-87.5561,81.9,1111122 
DISL,ioos:station:DISL:PPTA:1,2015-09-04T04:00:00Z,30.2791,-87.5561,82.7,1111122 
DISL,ioos:station:DISL:PPTA:1,2015-09-04T04:30:00Z,30.2791,-87.5561,82.6,1111122 
DISL,ioos:station:DISL:PPTA:1,2015-09-04T05:00:00Z,30.2791,-87.5561,82.6,1111122 
DISL,ioos:station:DISL:PPTA:1,2015-09-04T05:30:00Z,30.2791,-87.5561,83.7,1111122 
DISL,ioos:station:DISL:PPTA:1,2015-09-04T06:00:00Z,30.2791,-87.5561,83.2,1111122 
DISL,ioos:station:DISL:PPTA:1,2015-09-04T06:30:00Z,30.2791,-87.5561,84.4,1111122 
DISL,ioos:station:DISL:PPTA:1,2015-09-04T07:00:00Z,30.2791,-87.5561,85.6,1111122 
DISL,ioos:station:DISL:PPTA:1,2015-09-04T07:30:00Z,30.2791,-87.5561,85.3,1111122 
DISL,ioos:station:DISL:PPTA:1,2015-09-04T08:00:00Z,30.2791,-87.5561,84.9,1111122 
DISL,ioos:station:DISL:PPTA:1,2015-09-04T08:30:00Z,30.2791,-87.5561,84.1,1111122 
DISL,ioos:station:DISL:PPTA:1,2015-09-04T09:00:00Z,30.2791,-87.5561,85.2,1111122 
DISL,ioos:station:DISL:PPTA:1,2015-09-04T09:30:00Z,30.2791,-87.5561,86.1,1111122 
DISL,ioos:station:DISL:PPTA:1,2015-09-04T10:00:00Z,30.2791,-87.5561,89.4,1111122 
DISL,ioos:station:DISL:PPTA:1,2015-09-04T10:30:00Z,30.2791,-87.5561,92.5,1111122 
DISL,ioos:station:DISL:PPTA:1,2015-09-04T11:00:00Z,30.2791,-87.5561,93.6,1111122 
DISL,ioos:station:DISL:PPTA:1,2015-09-04T11:30:00Z,30.2791,-87.5561,93.9,1111122 
DISL,ioos:station:DISL:PPTA:1,2015-09-04T12:00:00Z,30.2791,-87.5561,92.9,1111122 
DISL,ioos:station:DISL:PPTA:1,2015-09-04T12:30:00Z,30.2791,-87.5561,92.3,1111122 
DISL,ioos:station:DISL:PPTA:1,2015-09-04T13:00:00Z,30.2791,-87.5561,90.9,1111122 
DISL,ioos:station:DISL:PPTA:1,2015-09-04T13:30:00Z,30.2791,-87.5561,84.4,1111122 
DISL,ioos:station:DISL:PPTA:1,2015-09-04T14:00:00Z,30.2791,-87.5561,83.2,1111122 
DISL,ioos:station:DISL:PPTA:1,2015-09-04T14:30:00Z,30.2791,-87.5561,80.5,1111122 
DISL,ioos:station:DISL:PPTA:1,2015-09-04T15:00:00Z,30.2791,-87.5561,78.49,1111122 
DISL,ioos:station:DISL:PPTA:1,2015-09-04T15:30:00Z,30.2791,-87.5561,76.6,1111122 
DISL,ioos:station:DISL:PPTA:1,2015-09-04T16:00:00Z,30.2791,-87.5561,71.27,1111122 
DISL,ioos:station:DISL:PPTA:1,2015-09-04T16:30:00Z,30.2791,-87.5561,71.48,1111122 
DISL,ioos:station:DISL:PPTA:1,2015-09-04T17:00:00Z,30.2791,-87.5561,68.58,1111122 
DISL,ioos:station:DISL:PPTA:1,2015-09-04T17:30:00Z,30.2791,-87.5561,67.77,1111122 
DISL,ioos:station:DISL:PPTA:1,2015-09-04T18:00:00Z,30.2791,-87.5561,70.86,1111122 
DISL,ioos:station:DISL:PPTA:1,2015-09-04T18:30:00Z,30.2791,-87.5561,74.88,1111122 
DISL,ioos:station:DISL:PPTA:1,2015-09-04T19:00:00Z,30.2791,-87.5561,69.66,1111122 
DISL,ioos:station:DISL:PPTA:1,2015-09-04T19:30:00Z,30.2791,-87.5561,73.95,1111122 
DISL,ioos:station:DISL:PPTA:1,2015-09-04T20:00:00Z,30.2791,-87.5561,68.51,1111122 
DISL,ioos:station:DISL:PPTA:1,2015-09-04T20:30:00Z,30.2791,-87.5561,68.52,1111122 
DISL,ioos:station:DISL:PPTA:1,2015-09-04T21:00:00Z,30.2791,-87.5561,68.36,1111122 
DISL,ioos:station:DISL:PPTA:1,2015-09-04T21:30:00Z,30.2791,-87.5561,72.89,1111122 
DISL,ioos:station:DISL:PPTA:1,2015-09-04T22:00:00Z,30.2791,-87.5561,71.97,1111122 
DISL,ioos:station:DISL:PPTA:1,2015-09-04T22:30:00Z,30.2791,-87.5561,71.73,1111122 
DISL,ioos:station:DISL:PPTA:1,2015-09-04T23:00:00Z,30.2791,-87.5561,70.16,1111122 
DISL,ioos:station:DISL:PPTA:1,2015-09-04T23:30:00Z,30.2791,-87.5561,70.66,1111122 
DISL,ioos:station:DISL:PPTA:1,2015-09-05T00:00:00Z,30.2791,-87.5561,73.63,1111122 
DISL,ioos:station:DISL:PPTA:1,2015-09-05T00:30:00Z,30.2791,-87.5561,77.07,1111122 
DISL,ioos:station:DISL:PPTA:1,2015-09-05T01:00:00Z,30.2791,-87.5561,79.25,1111122 
DISL,ioos:station:DISL:PPTA:1,2015-09-05T01:30:00Z,30.2791,-87.5561,80.3,1111122 
DISL,ioos:station:DISL:PPTA:1,2015-09-05T02:00:00Z,30.2791,-87.5561,81.6,1111122 
DISL,ioos:station:DISL:PPTA:1,2015-09-05T02:30:00Z,30.2791,-87.5561,82.9,1111122 
DISL,ioos:station:DISL:PPTA:1,2015-09-05T03:00:00Z,30.2791,-87.5561,82.3,1111122 
DISL,ioos:station:DISL:PPTA:1,2015-09-05T03:30:00Z,30.2791,-87.5561,82.3,1111122 
DISL,ioos:station:DISL:PPTA:1,2015-09-05T04:00:00Z,30.2791,-87.5561,81.7,1111122 
DISL,ioos:station:DISL:PPTA:1,2015-09-05T04:30:00Z,30.2791,-87.5561,82.5,1111122 
DISL,ioos:station:DISL:PPTA:1,2015-09-05T05:00:00Z,30.2791,-87.5561,83.9,1111122 
DISL,ioos:station:DISL:PPTA:1,2015-09-05T05:30:00Z,30.2791,-87.5561,84.3,1111122 
DISL,ioos:station:DISL:PPTA:1,2015-09-05T06:00:00Z,30.2791,-87.5561,85.6,1111122 
DISL,ioos:station:DISL:PPTA:1,2015-09-05T06:30:00Z,30.2791,-87.5561,86.5,1111122 
DISL,ioos:station:DISL:PPTA:1,2015-09-05T07:00:00Z,30.2791,-87.5561,87.2,1111122 
DISL,ioos:station:DISL:PPTA:1,2015-09-05T07:30:00Z,30.2791,-87.5561,89.4,1111122 
DISL,ioos:station:DISL:PPTA:1,2015-09-05T08:00:00Z,30.2791,-87.5561,89.5,1111122 
DISL,ioos:station:DISL:PPTA:1,2015-09-05T08:30:00Z,30.2791,-87.5561,90.4,1111122 
DISL,ioos:station:DISL:PPTA:1,2015-09-05T09:00:00Z,30.2791,-87.5561,91.7,1111122 
DISL,ioos:station:DISL:PPTA:1,2015-09-05T09:30:00Z,30.2791,-87.5561,92.5,1111122 
DISL,ioos:station:DISL:PPTA:1,2015-09-05T10:00:00Z,30.2791,-87.5561,92.3,1111122 
DISL,ioos:station:DISL:PPTA:1,2015-09-05T10:30:00Z,30.2791,-87.5561,91.8,1111122 
DISL,ioos:station:DISL:PPTA:1,2015-09-05T11:00:00Z,30.2791,-87.5561,90.0,1111122 
DISL,ioos:station:DISL:PPTA:1,2015-09-05T11:30:00Z,30.2791,-87.5561,90.5,1111122 
DISL,ioos:station:DISL:PPTA:1,2015-09-05T12:00:00Z,30.2791,-87.5561,91.3,1111122 
DISL,ioos:station:DISL:PPTA:1,2015-09-05T12:30:00Z,30.2791,-87.5561,84.8,1111122 
DISL,ioos:station:DISL:PPTA:1,2015-09-05T13:00:00Z,30.2791,-87.5561,84.3,1111122 
DISL,ioos:station:DISL:PPTA:1,2015-09-05T13:30:00Z,30.2791,-87.5561,80.4,1111122 
DISL,ioos:station:DISL:PPTA:1,2015-09-05T14:00:00Z,30.2791,-87.5561,75.05,1111122 
DISL,ioos:station:DISL:PPTA:1,2015-09-05T14:30:00Z,30.2791,-87.5561,69.45,1111122 
DISL,ioos:station:DISL:PPTA:1,2015-09-05T15:00:00Z,30.2791,-87.5561,70.81,1111122 
DISL,ioos:station:DISL:PPTA:1,2015-09-05T15:30:00Z,30.2791,-87.5561,67.47,1111122 
DISL,ioos:station:DISL:PPTA:1,2015-09-05T16:00:00Z,30.2791,-87.5561,62.96,1111122 
DISL,ioos:station:DISL:PPTA:1,2015-09-05T16:30:00Z,30.2791,-87.5561,62.34,1111122 
DISL,ioos:station:DISL:PPTA:1,2015-09-05T17:00:00Z,30.2791,-87.5561,65.39,1111122 
DISL,ioos:station:DISL:PPTA:1,2015-09-05T17:30:00Z,30.2791,-87.5561,65.18,1111122 
DISL,ioos:station:DISL:PPTA:1,2015-09-05T18:00:00Z,30.2791,-87.5561,69.44,1111122 
DISL,ioos:station:DISL:PPTA:1,2015-09-05T18:30:00Z,30.2791,-87.5561,66.78,1111122 
DISL,ioos:station:DISL:PPTA:1,2015-09-05T19:00:00Z,30.2791,-87.5561,68.96,1111122 
DISL,ioos:station:DISL:PPTA:1,2015-09-05T19:30:00Z,30.2791,-87.5561,73.18,1111122 
DISL,ioos:station:DISL:PPTA:1,2015-09-05T20:00:00Z,30.2791,-87.5561,74.93,1111122 
DISL,ioos:station:DISL:PPTA:1,2015-09-05T20:30:00Z,30.2791,-87.5561,71.64,1111122 
DISL,ioos:station:DISL:PPTA:1,2015-09-05T21:00:00Z,30.2791,-87.5561,66.01,1111122 
DISL,ioos:station:DISL:PPTA:1,2015-09-05T21:30:00Z,30.2791,-87.5561,67.1,1111122 
DISL,ioos:station:DISL:PPTA:1,2015-09-05T22:00:00Z,30.2791,-87.5561,69.62,1111122 
DISL,ioos:station:DISL:PPTA:1,2015-09-05T22:30:00Z,30.2791,-87.5561,70.03,1111122 
DISL,ioos:station:DISL:PPTA:1,2015-09-05T23:00:00Z,30.2791,-87.5561,71.77,1111122 
DISL,ioos:station:DISL:PPTA:1,2015-09-05T23:30:00Z,30.2791,-87.5561,70.01,1111122 
DISL,ioos:station:DISL:PPTA:1,2015-09-06T00:00:00Z,30.2791,-87.5561,71.45,1111122 
DISL,ioos:station:DISL:PPTA:1,2015-09-06T00:30:00Z,30.2791,-87.5561,66.2,1111122 
DISL,ioos:station:DISL:PPTA:1,2015-09-06T01:00:00Z,30.2791,-87.5561,71.84,1111122 
DISL,ioos:station:DISL:PPTA:1,2015-09-06T01:30:00Z,30.2791,-87.5561,77.95,1111122 
DISL,ioos:station:DISL:PPTA:1,2015-09-06T02:00:00Z,30.2791,-87.5561,80.3,1111122 
DISL,ioos:station:DISL:PPTA:1,2015-09-06T02:30:00Z,30.2791,-87.5561,81.8,1111122 
DISL,ioos:station:DISL:PPTA:1,2015-09-06T03:00:00Z,30.2791,-87.5561,87.3,1111122 
DISL,ioos:station:DISL:PPTA:1,2015-09-06T03:30:00Z,30.2791,-87.5561,88.1,1111122 
DISL,ioos:station:DISL:PPTA:1,2015-09-06T04:00:00Z,30.2791,-87.5561,88.1,1111122 
DISL,ioos:station:DISL:PPTA:1,2015-09-06T04:30:00Z,30.2791,-87.5561,86.1,1111122 
DISL,ioos:station:DISL:PPTA:1,2015-09-06T05:00:00Z,30.2791,-87.5561,79.0,1111122 
DISL,ioos:station:DISL:PPTA:1,2015-09-06T05:30:00Z,30.2791,-87.5561,79.54,1111122 
DISL,ioos:station:DISL:PPTA:1,2015-09-06T06:00:00Z,30.2791,-87.5561,77.4,1111122 
DISL,ioos:station:DISL:PPTA:1,2015-09-06T06:30:00Z,30.2791,-87.5561,74.53,1111122 
DISL,ioos:station:DISL:PPTA:1,2015-09-06T07:00:00Z,30.2791,-87.5561,80.2,1111122 
DISL,ioos:station:DISL:PPTA:1,2015-09-06T07:30:00Z,30.2791,-87.5561,77.97,1111122 
DISL,ioos:station:DISL:PPTA:1,2015-09-06T08:00:00Z,30.2791,-87.5561,76.75,1111122 
DISL,ioos:station:DISL:PPTA:1,2015-09-06T08:30:00Z,30.2791,-87.5561,80.4,1111122 
DISL,ioos:station:DISL:PPTA:1,2015-09-06T09:00:00Z,30.2791,-87.5561,82.0,1111122 
DISL,ioos:station:DISL:PPTA:1,2015-09-06T09:30:00Z,30.2791,-87.5561,85.2,1111122 
DISL,ioos:station:DISL:PPTA:1,2015-09-06T10:00:00Z,30.2791,-87.5561,86.5,1111122 
DISL,ioos:station:DISL:PPTA:1,2015-09-06T10:30:00Z,30.2791,-87.5561,86.1,1111122 
DISL,ioos:station:DISL:PPTA:1,2015-09-06T11:00:00Z,30.2791,-87.5561,86.6,1111122 
DISL,ioos:station:DISL:PPTA:1,2015-09-06T11:30:00Z,30.2791,-87.5561,88.6,1111122 
DISL,ioos:station:DISL:PPTA:1,2015-09-06T12:00:00Z,30.2791,-87.5561,90.1,1111122 
DISL,ioos:station:DISL:PPTA:1,2015-09-06T12:30:00Z,30.2791,-87.5561,88.9,1111122 
DISL,ioos:station:DISL:PPTA:1,2015-09-06T13:00:00Z,30.2791,-87.5561,85.8,1111122 
DISL,ioos:station:DISL:PPTA:1,2015-09-06T13:30:00Z,30.2791,-87.5561,85.9,1111122 
DISL,ioos:station:DISL:PPTA:1,2015-09-06T14:00:00Z,30.2791,-87.5561,84.6,1111122 
DISL,ioos:station:DISL:PPTA:1,2015-09-06T14:30:00Z,30.2791,-87.5561,82.9,1111122 
DISL,ioos:station:DISL:PPTA:1,2015-09-06T15:00:00Z,30.2791,-87.5561,79.8,1111122 
DISL,ioos:station:DISL:PPTA:1,2015-09-06T15:30:00Z,30.2791,-87.5561,80.2,1111122 
DISL,ioos:station:DISL:PPTA:1,2015-09-06T16:00:00Z,30.2791,-87.5561,80.4,1111122 
DISL,ioos:station:DISL:PPTA:1,2015-09-06T16:30:00Z,30.2791,-87.5561,76.31,1111122 
DISL,ioos:station:DISL:PPTA:1,2015-09-06T17:00:00Z,30.2791,-87.5561,79.94,1111122 
DISL,ioos:station:DISL:PPTA:1,2015-09-06T17:30:00Z,30.2791,-87.5561,76.46,1111122 
DISL,ioos:station:DISL:PPTA:1,2015-09-06T18:00:00Z,30.2791,-87.5561,77.21,1111122 
DISL,ioos:station:DISL:PPTA:1,2015-09-06T18:30:00Z,30.2791,-87.5561,74.49,1111122 
DISL,ioos:station:DISL:PPTA:1,2015-09-06T19:00:00Z,30.2791,-87.5561,74.65,1111122 
DISL,ioos:station:DISL:PPTA:1,2015-09-06T19:30:00Z,30.2791,-87.5561,71.75,1111122 
DISL,ioos:station:DISL:PPTA:1,2015-09-06T20:00:00Z,30.2791,-87.5561,67.63,1111122 
DISL,ioos:station:DISL:PPTA:1,2015-09-06T20:30:00Z,30.2791,-87.5561,70.56,1111122 
DISL,ioos:station:DISL:PPTA:1,2015-09-06T21:00:00Z,30.2791,-87.5561,69.2,1111122 
DISL,ioos:station:DISL:PPTA:1,2015-09-06T21:30:00Z,30.2791,-87.5561,63.88,1111122 
DISL,ioos:station:DISL:PPTA:1,2015-09-06T22:00:00Z,30.2791,-87.5561,69.64,1111122 
DISL,ioos:station:DISL:PPTA:1,2015-09-06T22:30:00Z,30.2791,-87.5561,68.62,1111122 
DISL,ioos:station:DISL:PPTA:1,2015-09-06T23:00:00Z,30.2791,-87.5561,71.21,1111122 
DISL,ioos:station:DISL:PPTA:1,2015-09-06T23:30:00Z,30.2791,-87.5561,70.47,1111122 
DISL,ioos:station:DISL:PPTA:1,2015-09-07T00:00:00Z,30.2791,-87.5561,72.93,1111122 
DISL,ioos:station:DISL:PPTA:1,2015-09-07T00:30:00Z,30.2791,-87.5561,71.78,1111122 